Time,TemperatureF,DewpointF,PressureIn,WindDirection,WindDirectionDegrees,WindSpeedMPH,WindSpeedGustMPH,Humidity,HourlyPrecipIn,Conditions,Clouds,dailyrainin,SoftwareType,DateUTC
2013-01-24 00:01:00,59.7,55.2,30.11,WNW,292,2.7,-999.0,85,-99.99,,,0.00,Acu-Link.com,2013-01-24 05:01:00,
2013-01-24 00:16:00,59.5,55.0,30.11,WNW,292,3.2,-999.0,85,-99.99,,,0.00,Acu-Link.com,2013-01-24 05:16:00,
2013-01-24 00:31:00,59.4,54.9,30.10,NNE,22,4.2,-999.0,85,-99.99,,,0.00,Acu-Link.com,2013-01-24 05:31:00,
2013-01-24 00:47:00,59.2,55.0,30.11,North,0,2.7,-999.0,86,-99.99,,,0.00,Acu-Link.com,2013-01-24 05:47:00,
2013-01-24 01:02:00,59.0,54.8,30.11,NNE,22,2.7,-999.0,86,-99.99,,,0.00,Acu-Link.com,2013-01-24 06:02:00,
2013-01-24 01:17:00,59.0,55.1,30.11,NNE,22,2.7,-999.0,87,-99.99,,,0.00,Acu-Link.com,2013-01-24 06:17:00,
2013-01-24 01:32:00,59.0,54.8,30.11,NNE,22,2.7,-999.0,86,-99.99,,,0.00,Acu-Link.com,2013-01-24 06:32:00,
2013-01-24 01:47:00,59.2,55.0,30.11,NW,315,2.7,-999.0,86,-99.99,,,0.00,Acu-Link.com,2013-01-24 06:47:00,
2013-01-24 02:02:00,59.7,55.2,30.11,NW,315,4.7,-999.0,85,-99.99,,,0.00,Acu-Link.com,2013-01-24 07:02:00,
2013-01-24 02:17:00,60.1,54.9,30.11,NW,315,3.7,-999.0,83,-99.99,,,0.00,Acu-Link.com,2013-01-24 07:17:00,
2013-01-24 02:33:00,60.3,54.8,30.10,NNW,337,3.2,-999.0,82,-99.99,,,0.00,Acu-Link.com,2013-01-24 07:33:00,
2013-01-24 02:48:00,60.3,54.8,30.10,WNW,292,2.7,-999.0,82,-99.99,,,0.00,Acu-Link.com,2013-01-24 07:48:00,
2013-01-24 03:03:00,60.1,54.6,30.09,NE,45,4.2,-999.0,82,-99.99,,,0.00,Acu-Link.com,2013-01-24 08:03:00,
2013-01-24 03:18:00,59.9,54.4,30.09,North,0,3.7,-999.0,82,-99.99,,,0.00,Acu-Link.com,2013-01-24 08:18:00,
2013-01-24 03:33:00,59.7,54.5,30.09,NE,45,2.7,-999.0,83,-99.99,,,0.00,Acu-Link.com,2013-01-24 08:33:00,
2013-01-24 03:53:00,59.5,54.7,30.08,NNE,22,3.2,-999.0,84,-99.99,,,0.00,Acu-Link.com,2013-01-24 08:53:00,
2013-01-24 04:16:00,59.2,54.7,30.08,NNE,22,1.7,-999.0,85,-99.99,,,0.00,Acu-Link.com,2013-01-24 09:16:00,
2013-01-24 04:32:00,58.3,54.4,30.08,NNE,22,1.7,-999.0,87,-99.99,,,0.00,Acu-Link.com,2013-01-24 09:32:00,
2013-01-24 04:47:00,57.9,54.4,30.06,NNE,22,2.7,-999.0,88,-99.99,,,0.00,Acu-Link.com,2013-01-24 09:47:00,
2013-01-24 05:02:00,58.1,54.2,30.07,NNE,22,4.2,-999.0,87,-99.99,,,0.00,Acu-Link.com,2013-01-24 10:02:00,
2013-01-24 05:17:00,58.8,54.0,30.07,NNW,337,2.7,-999.0,84,-99.99,,,0.00,Acu-Link.com,2013-01-24 10:17:00,
2013-01-24 05:32:00,59.2,54.0,30.07,NNW,337,2.7,-999.0,83,-99.99,,,0.00,Acu-Link.com,2013-01-24 10:32:00,
2013-01-24 05:47:00,59.9,53.7,30.09,NE,45,4.7,-999.0,80,-99.99,,,0.00,Acu-Link.com,2013-01-24 10:47:00,
2013-01-24 06:02:00,59.9,53.0,30.09,WNW,292,3.7,-999.0,78,-99.99,,,0.00,Acu-Link.com,2013-01-24 11:02:00,
2013-01-24 06:17:00,59.5,53.0,30.09,NW,315,0.0,-999.0,79,-99.99,,,0.00,Acu-Link.com,2013-01-24 11:17:00,
2013-01-24 06:33:00,58.8,52.6,30.11,NW,315,1.1,-999.0,80,-99.99,,,0.00,Acu-Link.com,2013-01-24 11:33:00,
2013-01-24 06:48:00,58.8,52.0,30.11,NE,45,3.2,-999.0,78,-99.99,,,0.00,Acu-Link.com,2013-01-24 11:48:00,
2013-01-24 07:03:00,59.5,50.5,30.11,NE,45,3.2,-999.0,72,-99.99,,,0.00,Acu-Link.com,2013-01-24 12:03:00,
2013-01-24 07:18:00,59.9,49.7,30.11,NNE,22,6.8,-999.0,69,-99.99,,,0.00,Acu-Link.com,2013-01-24 12:18:00,
2013-01-24 07:33:00,60.3,49.3,30.12,North,0,4.2,-999.0,67,-99.99,,,0.00,Acu-Link.com,2013-01-24 12:33:00,
2013-01-24 07:48:00,61.3,48.2,30.13,NNE,22,6.8,-999.0,62,-99.99,,,0.00,Acu-Link.com,2013-01-24 12:48:00,
2013-01-24 08:03:00,63.1,45.7,30.12,ENE,67,3.7,-999.0,53,-99.99,,,0.00,Acu-Link.com,2013-01-24 13:03:00,
2013-01-24 08:18:00,62.2,44.9,30.13,NNE,22,3.7,-999.0,53,-99.99,,,0.00,Acu-Link.com,2013-01-24 13:18:00,
2013-01-24 08:33:00,63.0,44.1,30.13,North,0,5.8,-999.0,50,-99.99,,,0.00,Acu-Link.com,2013-01-24 13:33:00,
2013-01-24 08:49:00,64.4,43.2,30.14,WNW,292,5.8,-999.0,46,-99.99,,,0.00,Acu-Link.com,2013-01-24 13:49:00,
2013-01-24 09:04:00,65.5,41.8,30.15,NE,45,5.8,-999.0,42,-99.99,,,0.00,Acu-Link.com,2013-01-24 14:04:00,
2013-01-24 09:19:00,66.2,39.8,30.15,WNW,292,5.8,-999.0,38,-99.99,,,0.00,Acu-Link.com,2013-01-24 14:19:00,
2013-01-24 09:34:00,67.3,40.1,30.15,NNW,337,3.7,-999.0,37,-99.99,,,0.00,Acu-Link.com,2013-01-24 14:34:00,
2013-01-24 09:49:00,68.5,39.8,30.15,NW,315,4.2,-999.0,35,-99.99,,,0.00,Acu-Link.com,2013-01-24 14:49:00,
2013-01-24 10:04:00,69.3,41.2,30.15,NE,45,6.8,-999.0,36,-99.99,,,0.00,Acu-Link.com,2013-01-24 15:04:00,
2013-01-24 10:19:00,70.0,43.2,30.14,WNW,292,3.7,-999.0,38,-99.99,,,0.00,Acu-Link.com,2013-01-24 15:19:00,
2013-01-24 10:34:00,70.3,43.5,30.14,NNE,22,3.7,-999.0,38,-99.99,,,0.00,Acu-Link.com,2013-01-24 15:34:00,
2013-01-24 10:49:00,70.9,46.7,30.14,NNW,337,7.8,-999.0,42,-99.99,,,0.00,Acu-Link.com,2013-01-24 15:49:00,
2013-01-24 11:05:00,72.1,47.1,30.14,NW,315,8.3,-999.0,41,-99.99,,,0.00,Acu-Link.com,2013-01-24 16:05:00,
2013-01-24 11:20:00,72.7,47.6,30.14,NNW,337,5.8,-999.0,41,-99.99,,,0.00,Acu-Link.com,2013-01-24 16:20:00,
2013-01-24 11:35:00,73.2,48.7,30.14,NNW,337,7.8,-999.0,42,-99.99,,,0.00,Acu-Link.com,2013-01-24 16:35:00,
2013-01-24 11:50:00,72.3,49.2,30.14,North,0,8.3,-999.0,44,-99.99,,,0.00,Acu-Link.com,2013-01-24 16:50:00,
2013-01-24 12:05:00,73.6,49.7,30.13,NNW,337,4.2,-999.0,43,-99.99,,,0.00,Acu-Link.com,2013-01-24 17:05:00,
2013-01-24 12:20:00,73.6,50.3,30.11,West,270,5.8,-999.0,44,-99.99,,,0.00,Acu-Link.com,2013-01-24 17:20:00,
2013-01-24 12:36:00,73.9,51.2,30.11,NNW,337,5.8,-999.0,45,-99.99,,,0.00,Acu-Link.com,2013-01-24 17:36:00,
2013-01-24 12:51:00,74.1,51.4,30.09,NW,315,4.7,-999.0,45,-99.99,,,0.00,Acu-Link.com,2013-01-24 17:51:00,
2013-01-24 13:06:00,73.8,51.7,30.09,North,0,6.8,-999.0,46,-99.99,,,0.00,Acu-Link.com,2013-01-24 18:06:00,
2013-01-24 13:21:00,74.1,52.0,30.08,WNW,292,3.2,-999.0,46,-99.99,,,0.00,Acu-Link.com,2013-01-24 18:21:00,
2013-01-24 13:36:00,74.1,51.4,30.08,North,0,5.8,-999.0,45,-99.99,,,0.00,Acu-Link.com,2013-01-24 18:36:00,
2013-01-24 13:51:00,74.7,51.9,30.08,North,0,3.2,-999.0,45,-99.99,,,0.00,Acu-Link.com,2013-01-24 18:51:00,
2013-01-24 14:06:00,74.7,51.9,30.06,North,0,2.2,-999.0,45,-99.99,,,0.00,Acu-Link.com,2013-01-24 19:06:00,
2013-01-24 14:21:00,76.1,52.0,30.05,NNW,337,4.7,-999.0,43,-99.99,,,0.00,Acu-Link.com,2013-01-24 19:21:00,
2013-01-24 14:36:00,76.3,51.5,30.05,West,270,1.7,-999.0,42,-99.99,,,0.00,Acu-Link.com,2013-01-24 19:36:00,
2013-01-24 14:52:00,74.7,50.7,30.05,West,270,2.7,-999.0,43,-99.99,,,0.00,Acu-Link.com,2013-01-24 19:52:00,
2013-01-24 15:07:00,74.5,51.7,30.04,ESE,112,6.3,-999.0,45,-99.99,,,0.00,Acu-Link.com,2013-01-24 20:07:00,
2013-01-24 15:22:00,74.5,49.2,30.05,NNE,22,3.7,-999.0,41,-99.99,,,0.00,Acu-Link.com,2013-01-24 20:22:00,
2013-01-24 15:37:00,73.6,52.1,30.05,ESE,112,6.3,-999.0,47,-99.99,,,0.00,Acu-Link.com,2013-01-24 20:37:00,
2013-01-24 15:52:00,73.0,52.7,30.06,NE,45,6.8,-999.0,49,-99.99,,,0.00,Acu-Link.com,2013-01-24 20:52:00,
2013-01-24 16:07:00,72.3,53.1,30.07,NE,45,10.4,-999.0,51,-99.99,,,0.00,Acu-Link.com,2013-01-24 21:07:00,
2013-01-24 16:22:00,72.1,52.4,30.07,NNE,22,11.4,-999.0,50,-99.99,,,0.00,Acu-Link.com,2013-01-24 21:22:00,
2013-01-24 16:37:00,71.4,51.8,30.07,ENE,67,11.9,-999.0,50,-99.99,,,0.00,Acu-Link.com,2013-01-24 21:37:00,
2013-01-24 16:52:00,70.9,50.8,30.08,NE,45,14.5,-999.0,49,-99.99,,,0.00,Acu-Link.com,2013-01-24 21:52:00,
2013-01-24 17:08:00,70.3,49.7,30.08,NE,45,4.7,-999.0,48,-99.99,,,0.00,Acu-Link.com,2013-01-24 22:08:00,
2013-01-24 17:23:00,70.0,47.1,30.09,NE,45,6.8,-999.0,44,-99.99,,,0.00,Acu-Link.com,2013-01-24 22:23:00,
2013-01-24 17:38:00,69.4,47.7,30.09,North,0,8.9,-999.0,46,-99.99,,,0.00,Acu-Link.com,2013-01-24 22:38:00,
2013-01-24 17:53:00,68.4,50.6,30.09,NNE,22,8.9,-999.0,53,-99.99,,,0.00,Acu-Link.com,2013-01-24 22:53:00,
2013-01-24 18:08:00,67.8,51.5,30.09,NNE,22,5.8,-999.0,56,-99.99,,,0.00,Acu-Link.com,2013-01-24 23:08:00,
2013-01-24 18:23:00,67.3,52.0,30.09,NNE,22,4.7,-999.0,58,-99.99,,,0.00,Acu-Link.com,2013-01-24 23:23:00,
2013-01-24 18:38:00,66.6,52.3,30.09,NE,45,3.7,-999.0,60,-99.99,,,0.00,Acu-Link.com,2013-01-24 23:38:00,
2013-01-24 18:53:00,66.0,52.2,30.09,NE,45,2.2,-999.0,61,-99.99,,,0.00,Acu-Link.com,2013-01-24 23:53:00,
2013-01-24 19:08:00,65.3,52.4,30.09,NNE,22,2.2,-999.0,63,-99.99,,,0.00,Acu-Link.com,2013-01-25 00:08:00,
2013-01-24 19:24:00,64.6,53.0,30.10,NNE,22,1.7,-999.0,66,-99.99,,,0.00,Acu-Link.com,2013-01-25 00:24:00,
2013-01-24 19:39:00,63.7,53.3,30.09,NNE,22,1.1,-999.0,69,-99.99,,,0.00,Acu-Link.com,2013-01-25 00:39:00,
2013-01-24 19:54:00,63.0,53.1,30.10,NNE,22,0.0,-999.0,70,-99.99,,,0.00,Acu-Link.com,2013-01-25 00:54:00,
2013-01-24 20:09:00,62.1,53.3,30.11,NNE,22,1.1,-999.0,73,-99.99,,,0.00,Acu-Link.com,2013-01-25 01:09:00,
2013-01-24 20:24:00,62.1,53.7,30.11,NNE,22,2.7,-999.0,74,-99.99,,,0.00,Acu-Link.com,2013-01-25 01:24:00,
2013-01-24 20:39:00,61.9,53.9,30.11,North,0,1.7,-999.0,75,-99.99,,,0.00,Acu-Link.com,2013-01-25 01:39:00,
2013-01-24 20:54:00,61.5,53.9,30.11,North,0,2.7,-999.0,76,-99.99,,,0.00,Acu-Link.com,2013-01-25 01:54:00,
2013-01-24 21:09:00,61.3,53.7,30.12,North,0,1.7,-999.0,76,-99.99,,,0.00,Acu-Link.com,2013-01-25 02:09:00,
2013-01-24 21:24:00,61.2,53.9,30.12,North,0,3.2,-999.0,77,-99.99,,,0.00,Acu-Link.com,2013-01-25 02:24:00,
2013-01-24 21:40:00,61.0,54.1,30.12,North,0,2.2,-999.0,78,-99.99,,,0.00,Acu-Link.com,2013-01-25 02:40:00,
2013-01-24 21:55:00,61.0,54.1,30.11,North,0,2.2,-999.0,78,-99.99,,,0.00,Acu-Link.com,2013-01-25 02:55:00,
2013-01-24 22:10:00,60.6,54.0,30.11,North,0,2.2,-999.0,79,-99.99,,,0.00,Acu-Link.com,2013-01-25 03:10:00,
2013-01-24 22:25:00,60.3,53.8,30.12,North,0,2.7,-999.0,79,-99.99,,,0.00,Acu-Link.com,2013-01-25 03:25:00,
2013-01-24 22:40:00,59.9,54.1,30.12,North,0,0.0,-999.0,81,-99.99,,,0.00,Acu-Link.com,2013-01-25 03:40:00,
2013-01-24 22:55:00,59.5,53.7,30.12,North,0,2.2,-999.0,81,-99.99,,,0.00,Acu-Link.com,2013-01-25 03:55:00,
2013-01-24 23:10:00,59.5,53.7,30.11,North,0,1.7,-999.0,81,-99.99,,,0.00,Acu-Link.com,2013-01-25 04:10:00,
2013-01-24 23:26:00,59.4,54.2,30.11,North,0,0.0,-999.0,83,-99.99,,,0.00,Acu-Link.com,2013-01-25 04:26:00,
2013-01-24 23:41:00,59.0,54.2,30.11,North,0,2.2,-999.0,84,-99.99,,,0.00,Acu-Link.com,2013-01-25 04:41:00,
2013-01-24 23:56:00,59.0,54.2,30.11,North,0,2.2,-999.0,84,-99.99,,,0.00,Acu-Link.com,2013-01-25 04:56:00,